Terminal Aerodrome Forecast
Issued by NWS

Home | Current Version | Previous Version | Text Only | Print | Product List | Glossary On
Versions: 1 2 3 4 5 6 7 8 9 10 11 12 13
000
FTUS43 KDDC 200200 AAA
TAFHYS
TAF AMD
KHYS 200250Z 2003/2024 18012KT P6SM SCT080 BKN150
     FM201500 20015G23KT P6SM BKN080=

USA.gov is the U.S. government's official web portal to all federal, state and local government web resources and services.